Zurück zum Katalog

STARLINK-3297

AktivKommunikationVLEO
NORAD 50159·PAYLOAD·🇺🇸 United States

Gestartet Dec 18, 2021 von Vandenberg Space Force Base

Loading…

Nächste Überflüge (nächste 24 Stunden)

TLE

AktuellSource: CelesTrak SupGP

Epoche: Sep 15, 2026, 01:32 UTC

1 50159C 21125D   26258.06437500  .00054038  00000+0  16399-2 0  2586
2 50159  53.1565 117.4051 0001335  84.3436  83.1656 15.33518392    16

Verfolge STARLINK-3297 in Echtzeit mit AllMySat

Download on the App Store